Starlink 32226

operational
NORAD ID: 60426 Int'l Des: 2024-144 Owner: SPXS Country: US Constellation: starlink
LEOCIRCULAR

About Starlink 32226

Description loading...

Live Position

Loading 3D Globe...

Upcoming Passes

Altitude History

Altitude vs Time

uPlot chart will show altitude changes over time

Two-Line Element Set

1 60426U 24144B 25257.45770412 -.00000542 00000-0 -61979-5 0 9994
2 60426 53.1585 315.9723 0000964 69.1755 290.9349 15.30184653 62324
Epoch: Sep 14, 2025 • Age: 24 hours

Current Status

Altitude 477.0 km
Velocity 7.63 km/s
Sub-Earth Point 33.48°N, 174.04°W
Launch Date Aug 12, 2024
Age 1 years
Type internet

Technical Details

Classification Payload
Mass 730.00 kg
Dry Mass 700.00 kg
Total Mass 730.00 kg
Length 0.30 m
Diameter 4.10 m
Span 29.00 m
Shape Box + pan
Manufacturer SPXS
Bus Type Starlink V2M
Phase Status In Orbit
Owner/State SPXS/US

Large Constellations

Loading constellations...